Regional Weather Roundup
Issued by NWS

Home | Current Version | Previous Version | Graphics & Text | Print | Product List | Glossary Off
Versions: 1 2 3 4 5 6 7 8 9 10 11 12 13 14 15 16 17 18 19 20 21 22 23 24 25 26 27 28 29 30 31 32 33 34 35 36 37 38 39 40 41 42 43 44 45 46 47 48 49 50

000
ASUS43 KMKX 010200
RWRWI

WISCONSIN REGIONAL WEATHER ROUNDUP
NATIONAL WEATHER SERVICE MILWAUKEE/SULLIVAN WI
900 PM CDT THU JUL 31 2014

NOTE: "FAIR" INDICATES FEW OR NO CLOUDS BELOW 12,000 FEET WITH NO
SIGNIFICANT WEATHER AND/OR OBSTRUCTIONS TO VISIBILITY.

WIZ001-002-006>008-014>016-023>028-010300-
NORTHWEST WISCONSIN

CITY           SKY/WX    TMP DP  RH WIND       PRES   REMARKS
SUPERIOR ARPT  CLEAR     65  61  85 CALM      29.96R
ASHLAND        CLEAR     64  61  90 W3        29.98R
HAYWARD        MOCLDY    68  64  87 CALM      29.99S
SIREN          PTCLDY    68  67  96 CALM      29.99R FOG
RICE LAKE      MOCLDY    69  62  78 CALM      30.01S
LADYSMITH      MOCLDY    66  64  91 CALM      30.01S
EAU CLAIRE     NOT AVBL
MENOMONIE      PTCLDY    73  61  66 E3        30.00S
NEW RICHMOND   CLEAR     69  59  70 W3        30.00S
OSCEOLA        CLEAR     73  61  66 CALM      30.01S
$$

WIZ003>005-009-010-017-018-010300-
NORTH CENTRAL WISCONSIN

CITY           SKY/WX    TMP DP  RH WIND       PRES   REMARKS
WOODRUFF       CLEAR     64  49  59 CALM      30.01R
RHINELANDER    CLEAR     58  55  90 CALM      30.01S
EAGLE RIVER    CLEAR     60  54  78 CALM      30.00S
LAND O LAKES   CLEAR     58  56  92 CALM      30.01S
PHILLIPS       PTCLDY    66  61  82 CALM      29.99S
TOMAHAWK       CLEAR     61  57  88 CALM      30.01S
MEDFORD        PTCLDY    64  60  87 SW3       30.01S
MERRILL        CLEAR     66  63  88 SW3       30.00R
$$

WIZ029-030-035-036-043>047-010300-
CENTRAL WISCONSIN

CITY           SKY/WX    TMP DP  RH WIND       PRES   REMARKS
WAUSAU         PTCLDY    69  61  75 W6        29.98S
MOSINEE        PTCLDY    66  63  88 VRB5      30.01S
MARSHFIELD     MOCLDY    69  61  75 W5        30.00S
STEVENS POINT  MOCLDY    64  60  87 CALM      30.01R
WAUPACA        MOCLDY    72  56  58 W3        29.99S
WAUTOMA        NOT AVBL
WISC RAPIDS    PTCLDY    69  60  73 W5        30.02R
CAMP DOUGLAS   NOT AVBL
$$

WIZ011>013-019>022-031-037>040-048>050-010300-
NORTHEAST WISCONSIN

CITY           SKY/WX    TMP DP  RH WIND       PRES   REMARKS
ANTIGO         CLEAR     65  57  76 CALM      30.01S
STURGEON BAY   MOCLDY    64  57  77 S7        29.98R
GREEN BAY      PTCLDY    67  63  87 W5        29.97S
MANITOWOC      CLOUDY    63  61  94 NW3       29.98S FOG
APPLETON       MOCLDY    66  59  77 W6        29.99S
CLINTONVILLE   PTCLDY    68  57  68 W6        29.98S
OSHKOSH        LGT RAIN  66  64  93 W5        29.99S
$$

WIZ032>034-041-042-053>061-010300-
SOUTHWEST WISCONSIN

CITY           SKY/WX    TMP DP  RH WIND       PRES   REMARKS
LA CROSSE      CLEAR     75  61  61 SW3       30.00R
SPARTA         CLEAR     66  60  80 CALM      30.02S
VIROQUA        FAIR      68  60  77 CALM      30.03S
BOSCOBEL       CLEAR     68  62  81 CALM      30.02R
PRAIRIE DU CHI CLEAR     70  59  69 CALM      30.01S
PLATTEVILLE    FAIR      71  59  64 SW3       30.04S
$$

WIZ056-057-062-063-064-067-068-010300-
SOUTH CENTRAL WISCONSIN

CITY           SKY/WX    TMP DP  RH WIND       PRES   REMARKS
BARABOO/DELLS  PTCLDY    70  56  62 CALM      30.02S
LONE ROCK      NOT AVBL
WATERTOWN      CLEAR     71  60  67 CALM      30.01S
MADISON        MOCLDY    70  59  68 CALM      30.02R
MIDDLETON      FAIR      68  61  80 CALM      30.03R
MONROE         CLEAR     72  57  60 W7        30.03S
JANESVILLE     CLEAR     73  57  56 SW5       30.02
$$

WIZ051-052-058>065-066-070>072-010300-
SOUTHEAST WISCONSIN

CITY           SKY/WX    TMP DP  RH WIND       PRES   REMARKS
MILWAUKEE      PTCLDY    76  58  53 W5        30.01R
WAUKESHA       NOT AVBL
MILWAUKEE/TIMM CLEAR     72  55  56 SW5       30.01R
RACINE         CLEAR     71  59  65 SW3       30.03R
BURLINGTON     CLEAR     66  58  75 SW3       30.02R
KENOSHA        CLEAR     64  58  80 W7        30.02R
FOND DU LAC    TSTM      68  62  81 CALM      30.00S
SHEBOYGAN      MOCLDY    68  64  87 SW3       30.00R
WEST BEND      PTCLDY    70  55  60 SW5       30.00S
JUNEAU         PTCLDY    69  58  67 SW6       30.02S
$$

LSZ147-162-010300-
LAKE SUPERIOR

STATION/POSITION TIME  TEMP    WIND        PRES    WAVE
                       AIR SEA DIR/SP/G            HT/PER
                 (UTC) (F)     (DEG/KT/KT) (MB)    (FT/S)
W MID LAKE BUOY  0050   55 45  210/  8/  8 1014.0S   0
PORT WING        0100   73     260/  3/  5 1014.6
SAXON HARBOR     0100          200/  3/  5 1014.2S
$$

LMZ867-665-643>646-010300-
LAKE MICHIGAN

STATION/POSITION TIME  TEMP    WIND        PRES    WAVE
                       AIR SEA DIR/SP/G            HT/PER
                 (UTC) (F)     (DEG/KT/KT) (MB)    (FT/S)
N MID LAKE BUOY  0050   59 56  220/ 10/ 12 1013.6S   2/ 4
NORTHPORT PIER   0100   69     240/  2/  4 1013.9S
SISTER BAY       0055   72        CALM       N/A
ALGOMA LAKESHORE 0051          220/  8/  9   N/A
KEWAUNEE LAKESHO 0100   60     180/ 12/ 13 1014.3R
SHEBOYGAN LAKESH 0100   72     190/  7/  7 1015.2R
PORT WASHINGTON  0100   69     180/  3/  4 1015.9R
ATWATER BUOY     0100   75     270/  8     1016.7R
MILWAUKEE LAKESH 0100   78     280/  9/ 12   N/A
S MID LAKE BUOY  0050   66 63  190/ 10/ 10 1015.7F   0
KENOSHA   LAKESH 0100   78     240/  7/ 11 1015.2S
$$

TC  - TEMPERATURE IN CELSIUS
VSB - VISIBILITY IN STATUTE MILES
WCI - WIND CHILL INDEX
HX  - HEAT INDEX




USA.gov is the U.S. government's official web portal to all federal, state and local government web resources and services.